Regional Weather Roundup
Issued by NWS Green Bay, WI

Home | Current Version | Previous Version | Text Only | Print | Product List | Glossary On
Versions: 1 2 3 4 5 6 7 8 9 10 11 12 13 14 15 16 17 18 19 20 21 22 23 24 25 26 27 28 29 30 31 32 33 34 35 36 37 38 39 40 41 42 43 44 45 46 47 48 49 50
120
ASUS43 KGRB 250111
RWRGRB

NORTH-CENTRAL AND NORTHEAST WISCONSIN REGIONAL WEATHER ROUNDUP
NATIONAL WEATHER SERVICE GREEN BAY WI
800 PM CDT TUE MAY 24 2016

WIZ005-009-010>012-018-019-250200-
NORTH CENTRAL WISCONSIN

CITY           SKY/WX    TMP DP  RH WIND       PRES   REMARKS
IRONWOOD       NOT AVBL
MANITOWISH WTR NOT AVBL
ARBOR VITAE    CLEAR     67  60  78 N3        29.95R
EAGLE RIVER      N/A     67  58  74 N5        29.94S
LAND O LAKES   MOCLDY    66  57  72 N3        29.95F
RHINELANDER    LGT RAIN  70  55  59 N5        29.94R
PHILLIPS       CLOUDY    71  61  70 N5        29.92S
ANTIGO         CLEAR     70  58  65 CALM      29.93F
TOMAHAWK       CLEAR     69  56  61 CALM      29.93S
MERRILL        CLEAR     74  59  59 W5        29.92F
$$

WIZ013-073-250200-
NORTHEAST WISCONSIN

CITY           SKY/WX    TMP DP  RH WIND       PRES   REMARKS
IRON MOUNTAIN  HVY RAIN  63  60  90 N17G30    29.93R VSB 1/4
MARINETTE      MOCLDY    62  56  80 E3        29.91F
OCONTO         PTCLDY    67  60  76 NE3       29.89S
$$

WIZ017-030-035>037-045-250200-
CENTRAL WISCONSIN

CITY           SKY/WX    TMP DP  RH WIND       PRES   REMARKS
MEDFORD        PTCLDY    72  63  72 CALM      29.93S
WAUSAU         CLEAR     77  56  48 W3        29.90F
MOSINEE        CLEAR     73  55  53 SW3       29.93F
MARSHFIELD     CLEAR     75  55  49 W5        29.91S
WISC RAPIDS    CLEAR     76  55  48 W3        29.93R
STEVENS POINT  CLEAR     76  53  45 CALM      29.93S
WAUPACA        PTCLDY    79  57  47 W5        29.91S
SHAWANO        CLEAR     77  56  47 W5        29.90F
CLINTONVILLE   CLEAR     77  52  41 NW5       29.90S
WAUTOMA        CLEAR     78  58  49 SW5       29.92R
$$

WIZ038-039-048-051-250200-
FOX VALLEY

CITY           SKY/WX    TMP DP  RH WIND       PRES   REMARKS
NWS GREEN BAY  PTCLDY    79  57  46 SW3       29.89F
APPLETON       PTCLDY    77  52  41 SW6       29.90S
OSHKOSH        CLEAR     77  58  51 CALM      29.91R
FOND DU LAC    CLEAR     76  61  59 SW5       29.92R
$$

WIZ022-050-052-250200-
EAST CENTRAL WISCONSIN

CITY           SKY/WX    TMP DP  RH WIND       PRES   REMARKS
EPHRAIM        FAIR      60  57  89 E5        29.91S
STURGEON BAY   NOT AVBL
MANITOWOC      CLEAR     68  57  68 S7        29.91F
SHEBOYGAN      PTCLDY    70  60  70 S3        29.92S
$$

LMZ563-521-522-541>543-250200-
LAKESHORE

STATION/POSITION TIME  TEMP    WIND        PRES    VSBY  WAVE
                       AIR SEA DIR/SP/G                  HT/PER
                 (UTC) (F)     (DEG/KT/KT) (MB)    (MI)  (FT/S)
SHEBOYGAN LKSHOR 0100   63     180/ 16/ 17 1013.6R
KEWAUNEE LKSHORE 0000   57                 1012.0R
ALGOMA MARINA    0016          220/  7/  9   N/A
NORTHPORT PIER   0000   54     150/  6/ 13 1013.2R
N MID LAKE BUOY  0050   48 44  150/  8/  8 1012.9F         1/ 4
SISTER BAY LKSHO 0019   67     120/  8/ 13   N/A
CHAMBERS ISLAND  0000   62      60/  8/ 10 1012.9S
MENOMINEE LKSHOR 0000   55                 1011.9R
$$




USA.gov is the U.S. government's official web portal to all federal, state and local government web resources and services.